Back to catalog

USA 340

LostMilitaryMEO
NORAD 55138·PAYLOAD·🇺🇸 United States

Launched Nov 1, 2022 from Cape Canaveral Space Force Station

Loading…

Next Passes (next 24 hours)

TLE

StaleSource: Space-Track

Epoch: Jun 12, 2025, 02:03 UTC

1 55138U 22144E   25163.08611111 -.00000216  00000-0  00000-0 0  9991
2 55138   4.4734  66.2414 0161279 302.5041 261.4999  0.99919047  8039

Track USA 340 in real time with AllMySat

Download on the App Store